Tracking 19717 objects as of 25-Jun-2019
HD Live streaming from Space Station
objects crossing your sky now

SUPERBIRD C

Track SUPERBIRD C now!
SUPERBIRD C is classified as:


NORAD ID: 24880
Int'l Code: 1997-036A
Perigee: 36,102.2 km
Apogee: 36,165.6 km
Inclination: 7.9 °
Period: 1,453.5 minutes
Semi major axis: 42504 km
RCS: 12.5892 m2 (large)
Launch date: July 28, 1997
Source: Japan (JPN)
Launch site: AIR FORCE EASTERN TEST RANGE (AFETR)

14 Ku-band; Asia-Pacific region; voice and video communications.
aabbcc
Your satellite tracking list
Your tracking list is empty




NASA's NSSDC Master Catalog

Two Line Element Set (TLE):
1 24880U 97036A   19175.67756218  .00000031  00000-0  00000+0 0  9995
2 24880   7.8698  49.7962 0007465 311.5888  48.2906  0.99070554 80023
Source of the keplerian elements: AFSPC